軌道要素
Epoch 2022 Aug. 9.0 TT = JDT 2459800.5
T 2022 Sept. 2.41458 TT Rudenko
q 1.5560662 (2000.0) P Q
n 0.14651505 Peri. 185.03601 +0.99807350 -0.00311997
a 3.5635365 Node 173.98502 -0.01053162 +0.97572091
e 0.5633366 Incl. 36.25120 -0.06114232 -0.21899538
P 6.73
From 143 observations 2002 Aug. 17-2022 June 6, mean residual 0".9.
|